Forest City, IA

4:58 PM CST on January 21, 2017 (GMT -0600)
Forest City

Weather History for KFXY - October, 2012

Change the Weather History Date:

Thursday, October 4, 2012

  Actual Average Record
Temperature  
Mean Temperature 48 °F -  
Max Temperature 60 °F 67 °F 82 °F (2011)
Min Temperature 37 °F 41 °F 32 °F (2014)
Degree Days  
Heating Degree Days 16    
Moisture  
Dew Point 31 °F    
Average Humidity 52    
Maximum Humidity 71    
Minimum Humidity 35    
Precipitation  
Precipitation 0.00 in - - ()
Sea Level Pressure  
Sea Level Pressure 30.07 in    
Wind  
Wind Speed 14 mph (WNW)    
Max Wind Speed 28 mph    
Max Gust Speed 37 mph    
Visibility 10 miles    
Events Rain    
Averages and records for this station are not official NWS values.
T = Trace of Precipitation, MM = Missing Value Source: NWS Daily Summary

Daily Weather History Graph

Daily Weather History Graph

Search for Another Location

Airport or City:

Trip Planner

Search our weather history database for the weather conditions in past years. The results will help you decide how hot, cold, wet, or windy it might be!

Date:

Astronomy

Oct. 04, 2012 Rise Set
Actual Time 7:15 AM CDT 6:49 PM CDT
Civil Twilight 6:47 AM CDT 7:17 PM CDT
Nautical Twilight 6:14 AM CDT 7:50 PM CDT
Astronomical Twilight 5:41 AM CDT 8:23 PM CDT
Moon 9:18 PM CDT (10/4) 11:41 AM CDT (10/4)
Length of Visible Light 12h 30m
Length of Day
11h 33m
Waning Gibbous, 82% of the Moon is Illuminated
Oct 4
Waning Gibbous
Oct 8
Last Quarter
Oct 15
New
Oct 21
First Quarter
Oct 29
Full

Hourly Weather History & Observations

Time (CDT) Temp. Windchill Dew Point Humidity Pressure Visibility Wind Dir Wind Speed Gust Speed Precip Events Conditions
12:15 AM 55.4 °F - 32.0 °F 41% 29.88 in 10.0 mi SSE 9.2 mph - N/A   Clear
12:35 AM 55.4 °F - 33.8 °F 44% 29.88 in 10.0 mi SSE 10.4 mph - N/A   Clear
12:55 AM 55.4 °F - 33.8 °F 44% 29.87 in 10.0 mi SSE 11.5 mph - N/A   Clear
1:15 AM 55.4 °F - 33.8 °F 44% 29.88 in 10.0 mi South 11.5 mph - N/A   Clear
1:35 AM 57.2 °F - 35.6 °F 44% 29.87 in 10.0 mi South 11.5 mph - N/A   Clear
1:55 AM 57.2 °F - 35.6 °F 44% 29.88 in 10.0 mi South 10.4 mph - N/A   Clear
2:15 AM 60.8 °F - 35.6 °F 39% 29.87 in 10.0 mi South 15.0 mph 19.6 mph N/A   Clear
2:35 AM 60.8 °F - 35.6 °F 39% 29.89 in 10.0 mi SW 17.3 mph 20.7 mph N/A   Clear
2:55 AM 59.0 °F - 33.8 °F 39% 29.90 in 10.0 mi WSW 10.4 mph 20.7 mph N/A   Clear
3:15 AM 51.8 °F - 35.6 °F 54% 29.91 in 10.0 mi West 11.5 mph 20.7 mph N/A   Clear
3:35 AM 50.0 °F - 35.6 °F 58% 29.92 in 10.0 mi West 12.7 mph 21.9 mph N/A   Clear
3:55 AM 50.0 °F - 35.6 °F 58% 29.93 in 10.0 mi West 8.1 mph - N/A   Clear
4:15 AM 48.2 °F - 35.6 °F 62% 29.94 in 10.0 mi West 11.5 mph 17.3 mph N/A   Clear
4:35 AM 48.2 °F - 35.6 °F 62% 29.94 in 10.0 mi West 8.1 mph - N/A   Clear
4:55 AM 46.4 °F 40.7 °F 35.6 °F 66% 29.95 in 10.0 mi West 12.7 mph 19.6 mph N/A   Clear
5:15 AM 46.4 °F 40.7 °F 35.6 °F 66% 29.97 in 10.0 mi West 12.7 mph 18.4 mph N/A   Clear
5:35 AM 46.4 °F 40.1 °F 35.6 °F 66% 29.97 in 10.0 mi West 15.0 mph 20.7 mph N/A   Clear
5:55 AM 46.4 °F 40.7 °F 35.6 °F 66% 29.99 in 10.0 mi West 12.7 mph 23.0 mph N/A   Mostly Cloudy
6:15 AM 46.4 °F 39.8 °F 35.6 °F 66% 30.00 in 10.0 mi West 16.1 mph 23.0 mph N/A   Scattered Clouds
6:35 AM 46.4 °F 39.2 °F 35.6 °F 66% 30.00 in 10.0 mi West 18.4 mph 25.3 mph N/A   Scattered Clouds
6:55 AM 46.4 °F 39.5 °F 35.6 °F 66% 30.01 in 10.0 mi West 17.3 mph - N/A   Scattered Clouds
7:15 AM 44.6 °F 36.1 °F 33.8 °F 66% 29.99 in 10.0 mi West 21.9 mph 25.3 mph N/A   Scattered Clouds
7:35 AM 44.6 °F 36.4 °F 33.8 °F 66% 30.01 in 10.0 mi West 20.7 mph 24.2 mph N/A   Drizzle
7:55 AM 44.6 °F 37.2 °F 35.6 °F 71% 30.01 in 10.0 mi West 17.3 mph 23.0 mph N/A Rain Light Rain
8:15 AM 44.6 °F 37.4 °F 33.8 °F 66% 30.02 in 10.0 mi WNW 16.1 mph 23.0 mph N/A   Mostly Cloudy
8:35 AM 44.6 °F 37.8 °F 33.8 °F 66% 30.03 in 10.0 mi West 15.0 mph 26.5 mph N/A   Mostly Cloudy
8:55 AM 44.6 °F 36.6 °F 32.0 °F 61% 30.04 in 10.0 mi WNW 19.6 mph 25.3 mph N/A   Scattered Clouds
9:15 AM 44.6 °F 36.6 °F 32.0 °F 61% 30.05 in 10.0 mi WNW 19.6 mph 28.8 mph N/A   Mostly Cloudy
9:35 AM 44.6 °F 36.1 °F 32.0 °F 61% 30.05 in 10.0 mi WNW 21.9 mph 28.8 mph N/A   Scattered Clouds
9:55 AM 44.6 °F 35.1 °F 32.0 °F 61% 30.06 in 10.0 mi WNW 27.6 mph 34.5 mph N/A   Scattered Clouds
10:15 AM 46.4 °F 37.7 °F 32.0 °F 57% 30.06 in 10.0 mi WNW 26.5 mph 32.2 mph N/A   Scattered Clouds
10:35 AM 46.4 °F 38.5 °F 32.0 °F 57% 30.07 in 10.0 mi WNW 21.9 mph 36.8 mph N/A   Scattered Clouds
10:55 AM 48.2 °F - 32.0 °F 54% 30.09 in 10.0 mi WNW 19.6 mph 27.6 mph N/A   Scattered Clouds
11:15 AM 48.2 °F - 30.2 °F 50% 30.09 in 10.0 mi NW 20.7 mph 32.2 mph N/A   Mostly Cloudy
11:35 AM 50.0 °F - 30.2 °F 47% 30.09 in 10.0 mi WNW 24.2 mph 31.1 mph N/A   Mostly Cloudy
11:55 AM 50.0 °F - 30.2 °F 47% 30.10 in 10.0 mi NW 23.0 mph 29.9 mph N/A   Mostly Cloudy
12:15 PM 50.0 °F - 30.2 °F 47% 30.11 in 10.0 mi WNW 23.0 mph 28.8 mph N/A   Mostly Cloudy
12:35 PM 50.0 °F - 30.2 °F 47% 30.12 in 10.0 mi West 20.7 mph 28.8 mph N/A   Mostly Cloudy
12:55 PM 50.0 °F - 30.2 °F 47% 30.12 in 10.0 mi WNW 25.3 mph 32.2 mph N/A   Mostly Cloudy
1:15 PM 51.8 °F - 28.4 °F 41% 30.13 in 10.0 mi WNW 20.7 mph 26.5 mph N/A   Mostly Cloudy
1:35 PM 51.8 °F - 28.4 °F 41% 30.13 in 10.0 mi WNW 23.0 mph 31.1 mph N/A   Mostly Cloudy
1:55 PM 50.0 °F - 28.4 °F 43% 30.13 in 10.0 mi WNW 20.7 mph 26.5 mph N/A   Mostly Cloudy
2:15 PM 51.8 °F - 28.4 °F 41% 30.13 in 10.0 mi NW 17.3 mph 28.8 mph N/A   Mostly Cloudy
2:35 PM 51.8 °F - 28.4 °F 41% 30.13 in 10.0 mi WNW 20.7 mph 26.5 mph N/A   Mostly Cloudy
2:55 PM 51.8 °F - 28.4 °F 41% 30.14 in 10.0 mi WNW 20.7 mph 28.8 mph N/A   Scattered Clouds
3:15 PM 53.6 °F - 26.6 °F 35% 30.13 in 10.0 mi WNW 20.7 mph 26.5 mph N/A   Mostly Cloudy
3:35 PM 51.8 °F - 26.6 °F 38% 30.13 in 10.0 mi WNW 20.7 mph 29.9 mph N/A   Scattered Clouds
4:15 PM 51.8 °F - 26.6 °F 38% 30.15 in 10.0 mi WNW 17.3 mph 23.0 mph N/A   Mostly Cloudy
4:35 PM 51.8 °F - 26.6 °F 38% 30.15 in 10.0 mi WNW 18.4 mph 25.3 mph N/A   Scattered Clouds
4:55 PM 51.8 °F - 26.6 °F 38% 30.15 in 10.0 mi NW 13.8 mph 27.6 mph N/A   Scattered Clouds
5:15 PM 51.8 °F - 26.6 °F 38% 30.16 in 10.0 mi NW 17.3 mph 26.5 mph N/A   Scattered Clouds
5:35 PM 50.0 °F - 26.6 °F 40% 30.16 in 10.0 mi NW 18.4 mph 25.3 mph N/A   Clear
5:55 PM 48.2 °F - 26.6 °F 43% 30.16 in 10.0 mi NW 16.1 mph 25.3 mph N/A   Clear
6:15 PM 46.4 °F 39.8 °F 26.6 °F 46% 30.17 in 10.0 mi NW 16.1 mph 25.3 mph N/A   Clear
6:35 PM 46.4 °F 39.8 °F 26.6 °F 46% 30.18 in 10.0 mi NW 16.1 mph 24.2 mph N/A   Clear
6:55 PM 44.6 °F 38.1 °F 26.6 °F 49% 30.18 in 10.0 mi NW 13.8 mph 19.6 mph N/A   Clear
7:15 PM 44.6 °F 39.2 °F 26.6 °F 49% 30.19 in 10.0 mi NW 10.4 mph - N/A   Clear
7:35 PM 44.6 °F 38.8 °F 26.6 °F 49% 30.20 in 10.0 mi NW 11.5 mph 16.1 mph N/A   Clear
7:55 PM 42.8 °F 36.6 °F 26.6 °F 53% 30.21 in 10.0 mi NW 11.5 mph 16.1 mph N/A   Clear
8:15 PM 42.8 °F 37.5 °F 26.6 °F 53% 30.20 in 10.0 mi NW 9.2 mph - N/A   Scattered Clouds
8:35 PM 42.8 °F 36.6 °F 26.6 °F 53% 30.20 in 10.0 mi NW 11.5 mph 16.1 mph N/A   Scattered Clouds
9:15 PM 42.8 °F 37.0 °F 26.6 °F 53% 30.21 in 10.0 mi NW 10.4 mph - N/A   Overcast
9:35 PM 42.8 °F 36.2 °F 26.6 °F 53% 30.20 in 10.0 mi NNW 12.7 mph 17.3 mph N/A   Mostly Cloudy
9:55 PM 42.8 °F 37.0 °F 26.6 °F 53% 30.20 in 10.0 mi NW 10.4 mph - N/A   Clear
10:15 PM 41.0 °F 34.3 °F 26.6 °F 57% 30.21 in 10.0 mi NW 11.5 mph 17.3 mph N/A   Clear
10:35 PM 41.0 °F 35.2 °F 26.6 °F 57% 30.21 in 10.0 mi WNW 9.2 mph - N/A   Mostly Cloudy
10:55 PM 41.0 °F 34.3 °F 26.6 °F 57% 30.21 in 10.0 mi NW 11.5 mph 18.4 mph N/A   Overcast
11:15 PM 41.0 °F 35.2 °F 26.6 °F 57% 30.21 in 10.0 mi WNW 9.2 mph - N/A   Scattered Clouds
11:35 PM 37.4 °F 32.1 °F 26.6 °F 65% 30.21 in 10.0 mi West 6.9 mph - N/A   Mostly Cloudy
11:55 PM 41.0 °F 36.4 °F 26.6 °F 57% 30.22 in 10.0 mi WNW 6.9 mph - N/A   Overcast